Data supplied by UK-AIR on 5/4/2008
All Data GMT hour ending 
Status: R =Ratified P=Provisional,P*=As supplied
,,London Sutton,,,,,,,,,,,,,,,,,,,,,,,
Date,time,"Nitric oxide",status,unit,"Nitrogen dioxide",status,unit,"Nitrogen oxides as nitrogen dioxide",status,unit,"Ozone",status,unit
 
01-01-2000,01:00,4,R,ugm-3,23,R,ugm-3,29,R,ugm-3,38,R,ugm-3
01-01-2000,02:00,4,R,ugm-3,21,R,ugm-3,27,R,ugm-3,42,R,ugm-3
01-01-2000,03:00,3,R,ugm-3,21,R,ugm-3,25,R,ugm-3,44,R,ugm-3
01-01-2000,04:00,4,R,ugm-3,19,R,ugm-3,25,R,ugm-3,44,R,ugm-3
01-01-2000,05:00,3,R,ugm-3,23,R,ugm-3,27,R,ugm-3,36,R,ugm-3
01-01-2000,06:00,4,R,ugm-3,27,R,ugm-3,32,R,ugm-3,30,R,ugm-3
01-01-2000,07:00,3,R,ugm-3,27,R,ugm-3,31,R,ugm-3,28,R,ugm-3
01-01-2000,08:00,4,R,ugm-3,34,R,ugm-3,40,R,ugm-3,18,R,ugm-3
01-01-2000,09:00,10,R,ugm-3,40,R,ugm-3,55,R,ugm-3,14,R,ugm-3
01-01-2000,10:00,13,R,ugm-3,44,R,ugm-3,63,R,ugm-3,14,R,ugm-3
01-01-2000,11:00,13,R,ugm-3,42,R,ugm-3,61,R,ugm-3,14,R,ugm-3
01-01-2000,12:00,15,R,ugm-3,46,R,ugm-3,69,R,ugm-3,12,R,ugm-3
01-01-2000,13:00,10,R,ugm-3,42,R,ugm-3,57,R,ugm-3,16,R,ugm-3
01-01-2000,14:00,10,R,ugm-3,36,R,ugm-3,52,R,ugm-3,24,R,ugm-3
01-01-2000,15:00,16,R,ugm-3,42,R,ugm-3,67,R,ugm-3,18,R,ugm-3
01-01-2000,16:00,14,R,ugm-3,44,R,ugm-3,65,R,ugm-3,18,R,ugm-3
01-01-2000,17:00,10,R,ugm-3,42,R,ugm-3,57,R,ugm-3,18,R,ugm-3
01-01-2000,18:00,10,R,ugm-3,42,R,ugm-3,57,R,ugm-3,10,R,ugm-3
01-01-2000,19:00,58,R,ugm-3,53,R,ugm-3,141,R,ugm-3,0,R,ugm-3
01-01-2000,20:00,11,R,ugm-3,50,R,ugm-3,67,R,ugm-3,16,R,ugm-3
01-01-2000,21:00,18,R,ugm-3,52,R,ugm-3,78,R,ugm-3,6,R,ugm-3
01-01-2000,22:00,16,R,ugm-3,50,R,ugm-3,74,R,ugm-3,4,R,ugm-3
01-01-2000,23:00,3,R,ugm-3,34,R,ugm-3,38,R,ugm-3,18,R,ugm-3
01-01-2000,24:00,3,R,ugm-3,29,R,ugm-3,32,R,ugm-3,24,R,ugm-3
02-01-2000,01:00,3,R,ugm-3,15,R,ugm-3,19,R,ugm-3,42,R,ugm-3
02-01-2000,02:00,1,R,ugm-3,15,R,ugm-3,17,R,ugm-3,34,R,ugm-3
02-01-2000,03:00,1,R,ugm-3,10,R,ugm-3,11,R,ugm-3,48,R,ugm-3
02-01-2000,04:00,1,R,ugm-3,8,R,ugm-3,10,R,ugm-3,50,R,ugm-3
02-01-2000,05:00,1,R,ugm-3,8,R,ugm-3,10,R,ugm-3,52,R,ugm-3
02-01-2000,06:00,1,R,ugm-3,10,R,ugm-3,11,R,ugm-3,48,R,ugm-3
02-01-2000,07:00,1,R,ugm-3,17,R,ugm-3,19,R,ugm-3,50,R,ugm-3
02-01-2000,08:00,3,R,ugm-3,25,R,ugm-3,29,R,ugm-3,46,R,ugm-3
02-01-2000,09:00,8,R,ugm-3,34,R,ugm-3,46,R,ugm-3,36,R,ugm-3
02-01-2000,10:00,8,R,ugm-3,32,R,ugm-3,44,R,ugm-3,38,R,ugm-3
02-01-2000,11:00,9,R,ugm-3,29,R,ugm-3,42,R,ugm-3,38,R,ugm-3
02-01-2000,12:00,6,R,ugm-3,27,R,ugm-3,36,R,ugm-3,46,R,ugm-3
02-01-2000,13:00,9,R,ugm-3,32,R,ugm-3,46,R,ugm-3,48,R,ugm-3
02-01-2000,14:00,8,R,ugm-3,27,R,ugm-3,38,R,ugm-3,54,R,ugm-3
02-01-2000,15:00,10,R,ugm-3,32,R,ugm-3,48,R,ugm-3,44,R,ugm-3
02-01-2000,16:00,11,R,ugm-3,38,R,ugm-3,55,R,ugm-3,28,R,ugm-3
02-01-2000,17:00,13,R,ugm-3,46,R,ugm-3,65,R,ugm-3,16,R,ugm-3
02-01-2000,18:00,11,R,ugm-3,48,R,ugm-3,65,R,ugm-3,16,R,ugm-3
02-01-2000,19:00,10,R,ugm-3,46,R,ugm-3,61,R,ugm-3,12,R,ugm-3
02-01-2000,20:00,9,R,ugm-3,34,R,ugm-3,48,R,ugm-3,24,R,ugm-3
02-01-2000,21:00,5,R,ugm-3,21,R,ugm-3,29,R,ugm-3,40,R,ugm-3
02-01-2000,22:00,3,R,ugm-3,15,R,ugm-3,19,R,ugm-3,50,R,ugm-3
02-01-2000,23:00,3,R,ugm-3,11,R,ugm-3,15,R,ugm-3,60,R,ugm-3
02-01-2000,24:00,4,R,ugm-3,10,R,ugm-3,15,R,ugm-3,64,R,ugm-3
03-01-2000,01:00,3,R,ugm-3,8,R,ugm-3,11,R,ugm-3,70,R,ugm-3
03-01-2000,02:00,3,R,ugm-3,6,R,ugm-3,10,R,ugm-3,70,R,ugm-3
03-01-2000,03:00,3,R,ugm-3,4,R,ugm-3,8,R,ugm-3,72,R,ugm-3
03-01-2000,04:00,1,R,ugm-3,4,R,ugm-3,6,R,ugm-3,72,R,ugm-3
03-01-2000,05:00,3,R,ugm-3,8,R,ugm-3,11,R,ugm-3,66,R,ugm-3
03-01-2000,06:00,3,R,ugm-3,8,R,ugm-3,11,R,ugm-3,68,R,ugm-3
03-01-2000,07:00,3,R,ugm-3,10,R,ugm-3,13,R,ugm-3,62,R,ugm-3
03-01-2000,08:00,3,R,ugm-3,11,R,ugm-3,15,R,ugm-3,62,R,ugm-3
03-01-2000,09:00,4,R,ugm-3,13,R,ugm-3,19,R,ugm-3,58,R,ugm-3
03-01-2000,10:00,4,R,ugm-3,15,R,ugm-3,21,R,ugm-3,56,R,ugm-3
03-01-2000,11:00,5,R,ugm-3,15,R,ugm-3,23,R,ugm-3,54,R,ugm-3
03-01-2000,12:00,6,R,ugm-3,21,R,ugm-3,31,R,ugm-3,50,R,ugm-3
03-01-2000,13:00,8,R,ugm-3,25,R,ugm-3,36,R,ugm-3,46,R,ugm-3
03-01-2000,14:00,9,R,ugm-3,25,R,ugm-3,38,R,ugm-3,42,R,ugm-3
03-01-2000,15:00,9,R,ugm-3,25,R,ugm-3,38,R,ugm-3,44,R,ugm-3
03-01-2000,16:00,10,R,ugm-3,29,R,ugm-3,44,R,ugm-3,40,R,ugm-3
03-01-2000,17:00,9,R,ugm-3,38,R,ugm-3,52,R,ugm-3,36,R,ugm-3
03-01-2000,18:00,10,R,ugm-3,46,R,ugm-3,61,R,ugm-3,30,R,ugm-3
03-01-2000,19:00,5,R,ugm-3,38,R,ugm-3,46,R,ugm-3,44,R,ugm-3
03-01-2000,20:00,5,R,ugm-3,38,R,ugm-3,46,R,ugm-3,44,R,ugm-3
03-01-2000,21:00,3,R,ugm-3,36,R,ugm-3,40,R,ugm-3,48,R,ugm-3
03-01-2000,22:00,3,R,ugm-3,50,R,ugm-3,53,R,ugm-3,30,R,ugm-3
03-01-2000,23:00,3,R,ugm-3,50,R,ugm-3,53,R,ugm-3,26,R,ugm-3
03-01-2000,24:00,4,R,ugm-3,31,R,ugm-3,36,R,ugm-3,44,R,ugm-3
04-01-2000,01:00,4,R,ugm-3,32,R,ugm-3,38,R,ugm-3,38,R,ugm-3
04-01-2000,02:00,5,R,ugm-3,44,R,ugm-3,52,R,ugm-3,14,R,ugm-3
04-01-2000,03:00,10,R,ugm-3,65,R,ugm-3,80,R,ugm-3,0,R,ugm-3
04-01-2000,04:00,8,R,ugm-3,63,R,ugm-3,74,R,ugm-3,0,R,ugm-3
04-01-2000,05:00,4,R,ugm-3,42,R,ugm-3,48,R,ugm-3,22,R,ugm-3
04-01-2000,06:00,1,R,ugm-3,23,R,ugm-3,25,R,ugm-3,40,R,ugm-3
04-01-2000,07:00,4,R,ugm-3,38,R,ugm-3,44,R,ugm-3,20,R,ugm-3
04-01-2000,08:00,18,R,ugm-3,57,R,ugm-3,84,R,ugm-3,4,R,ugm-3
04-01-2000,09:00,24,R,ugm-3,57,R,ugm-3,94,R,ugm-3,2,R,ugm-3
04-01-2000,10:00,54,R,ugm-3,67,R,ugm-3,149,R,ugm-3,0,R,ugm-3
04-01-2000,11:00,48,R,ugm-3,59,R,ugm-3,132,R,ugm-3,2,R,ugm-3
04-01-2000,12:00,21,R,ugm-3,40,R,ugm-3,73,R,ugm-3,20,R,ugm-3
04-01-2000,13:00,11,R,ugm-3,27,R,ugm-3,44,R,ugm-3,50,R,ugm-3
04-01-2000,14:00,13,R,ugm-3,34,R,ugm-3,53,R,ugm-3,46,R,ugm-3
04-01-2000,15:00,13,R,ugm-3,32,R,ugm-3,52,R,ugm-3,48,R,ugm-3
04-01-2000,16:00,9,R,ugm-3,29,R,ugm-3,42,R,ugm-3,54,R,ugm-3
04-01-2000,17:00,6,R,ugm-3,34,R,ugm-3,44,R,ugm-3,46,R,ugm-3
04-01-2000,18:00,16,R,ugm-3,59,R,ugm-3,84,R,ugm-3,22,R,ugm-3
04-01-2000,19:00,20,R,ugm-3,61,R,ugm-3,92,R,ugm-3,16,R,ugm-3
04-01-2000,20:00,15,R,ugm-3,57,R,ugm-3,80,R,ugm-3,16,R,ugm-3
04-01-2000,21:00,14,R,ugm-3,52,R,ugm-3,73,R,ugm-3,18,R,ugm-3
04-01-2000,22:00,10,R,ugm-3,38,R,ugm-3,53,R,ugm-3,32,R,ugm-3
04-01-2000,23:00,8,R,ugm-3,31,R,ugm-3,42,R,ugm-3,40,R,ugm-3
04-01-2000,24:00,8,R,ugm-3,31,R,ugm-3,42,R,ugm-3,36,R,ugm-3
05-01-2000,01:00,4,R,ugm-3,29,R,ugm-3,34,R,ugm-3,28,R,ugm-3
05-01-2000,02:00,1,R,ugm-3,19,R,ugm-3,21,R,ugm-3,34,R,ugm-3
05-01-2000,03:00,3,R,ugm-3,25,R,ugm-3,29,R,ugm-3,28,R,ugm-3
05-01-2000,04:00,4,R,ugm-3,27,R,ugm-3,32,R,ugm-3,28,R,ugm-3
05-01-2000,05:00,3,R,ugm-3,31,R,ugm-3,34,R,ugm-3,32,R,ugm-3
05-01-2000,06:00,4,R,ugm-3,27,R,ugm-3,32,R,ugm-3,38,R,ugm-3
05-01-2000,07:00,9,R,ugm-3,40,R,ugm-3,53,R,ugm-3,22,R,ugm-3
05-01-2000,08:00,25,R,ugm-3,61,R,ugm-3,99,R,ugm-3,4,R,ugm-3
05-01-2000,09:00,38,R,ugm-3,61,R,ugm-3,118,R,ugm-3,6,R,ugm-3
05-01-2000,10:00,20,R,ugm-3,42,R,ugm-3,73,R,ugm-3,22,R,ugm-3
05-01-2000,11:00,15,R,ugm-3,34,R,ugm-3,57,R,ugm-3,36,R,ugm-3
05-01-2000,12:00,13,R,ugm-3,31,R,ugm-3,50,R,ugm-3,44,R,ugm-3
05-01-2000,13:00,16,R,ugm-3,31,R,ugm-3,55,R,ugm-3,44,R,ugm-3
05-01-2000,14:00,13,R,ugm-3,27,R,ugm-3,46,R,ugm-3,48,R,ugm-3
05-01-2000,15:00,11,R,ugm-3,29,R,ugm-3,46,R,ugm-3,46,R,ugm-3
05-01-2000,16:00,11,R,ugm-3,31,R,ugm-3,48,R,ugm-3,42,R,ugm-3
05-01-2000,17:00,10,R,ugm-3,29,R,ugm-3,44,R,ugm-3,46,R,ugm-3
05-01-2000,18:00,9,R,ugm-3,31,R,ugm-3,44,R,ugm-3,42,R,ugm-3
05-01-2000,19:00,6,R,ugm-3,27,R,ugm-3,36,R,ugm-3,46,R,ugm-3
05-01-2000,20:00,5,R,ugm-3,21,R,ugm-3,29,R,ugm-3,50,R,ugm-3
05-01-2000,21:00,4,R,ugm-3,15,R,ugm-3,21,R,ugm-3,52,R,ugm-3
05-01-2000,22:00,4,R,ugm-3,11,R,ugm-3,17,R,ugm-3,52,R,ugm-3
05-01-2000,23:00,3,R,ugm-3,10,R,ugm-3,13,R,ugm-3,52,R,ugm-3
05-01-2000,24:00,3,R,ugm-3,10,R,ugm-3,13,R,ugm-3,54,R,ugm-3
06-01-2000,01:00,1,R,ugm-3,6,R,ugm-3,8,R,ugm-3,56,R,ugm-3
06-01-2000,02:00,1,R,ugm-3,4,R,ugm-3,6,R,ugm-3,60,R,ugm-3
06-01-2000,03:00,6,R,ugm-3,10,R,ugm-3,19,R,ugm-3,56,R,ugm-3
06-01-2000,04:00,4,R,ugm-3,8,R,ugm-3,13,R,ugm-3,56,R,ugm-3
06-01-2000,05:00,4,R,ugm-3,8,R,ugm-3,13,R,ugm-3,52,R,ugm-3
06-01-2000,06:00,5,R,ugm-3,10,R,ugm-3,17,R,ugm-3,50,R,ugm-3
06-01-2000,07:00,6,R,ugm-3,15,R,ugm-3,25,R,ugm-3,60,R,ugm-3
06-01-2000,08:00,13,R,ugm-3,32,R,ugm-3,52,R,ugm-3,50,R,ugm-3
06-01-2000,09:00,16,R,ugm-3,42,R,ugm-3,67,R,ugm-3,36,R,ugm-3
06-01-2000,10:00,13,R,ugm-3,34,R,ugm-3,53,R,ugm-3,42,R,ugm-3
06-01-2000,11:00,11,R,ugm-3,31,R,ugm-3,48,R,ugm-3,46,R,ugm-3
06-01-2000,12:00,11,R,ugm-3,29,R,ugm-3,46,R,ugm-3,46,R,ugm-3
06-01-2000,13:00,10,R,ugm-3,27,R,ugm-3,42,R,ugm-3,48,R,ugm-3
06-01-2000,14:00,10,R,ugm-3,31,R,ugm-3,46,R,ugm-3,46,R,ugm-3
06-01-2000,15:00,11,R,ugm-3,34,R,ugm-3,52,R,ugm-3,40,R,ugm-3
06-01-2000,16:00,14,R,ugm-3,42,R,ugm-3,63,R,ugm-3,30,R,ugm-3
06-01-2000,17:00,19,R,ugm-3,55,R,ugm-3,84,R,ugm-3,14,R,ugm-3
06-01-2000,18:00,26,R,ugm-3,61,R,ugm-3,101,R,ugm-3,10,R,ugm-3
06-01-2000,19:00,26,R,ugm-3,65,R,ugm-3,105,R,ugm-3,4,R,ugm-3
06-01-2000,20:00,28,R,ugm-3,65,R,ugm-3,107,R,ugm-3,2,R,ugm-3
06-01-2000,21:00,16,R,ugm-3,53,R,ugm-3,78,R,ugm-3,12,R,ugm-3
06-01-2000,22:00,10,R,ugm-3,50,R,ugm-3,65,R,ugm-3,16,R,ugm-3
06-01-2000,23:00,5,R,ugm-3,32,R,ugm-3,40,R,ugm-3,32,R,ugm-3
06-01-2000,24:00,4,R,ugm-3,21,R,ugm-3,27,R,ugm-3,48,R,ugm-3
07-01-2000,01:00,3,R,ugm-3,17,R,ugm-3,21,R,ugm-3,54,R,ugm-3
07-01-2000,02:00,1,R,ugm-3,17,R,ugm-3,19,R,ugm-3,48,R,ugm-3
07-01-2000,03:00,8,R,ugm-3,21,R,ugm-3,32,R,ugm-3,52,R,ugm-3
07-01-2000,04:00,8,R,ugm-3,17,R,ugm-3,29,R,ugm-3,50,R,ugm-3
07-01-2000,05:00,5,R,ugm-3,15,R,ugm-3,23,R,ugm-3,58,R,ugm-3
07-01-2000,06:00,6,R,ugm-3,23,R,ugm-3,32,R,ugm-3,44,R,ugm-3
07-01-2000,07:00,13,R,ugm-3,36,R,ugm-3,55,R,ugm-3,26,R,ugm-3
07-01-2000,08:00,24,R,ugm-3,48,R,ugm-3,84,R,ugm-3,14,R,ugm-3
07-01-2000,09:00,28,R,ugm-3,50,R,ugm-3,92,R,ugm-3,14,R,ugm-3
07-01-2000,10:00,23,R,ugm-3,44,R,ugm-3,78,R,ugm-3,24,R,ugm-3
07-01-2000,11:00,16,R,ugm-3,36,R,ugm-3,61,R,ugm-3,34,R,ugm-3
07-01-2000,12:00,19,R,ugm-3,36,R,ugm-3,65,R,ugm-3,38,R,ugm-3
07-01-2000,13:00,11,R,ugm-3,29,R,ugm-3,46,R,ugm-3,50,R,ugm-3
07-01-2000,14:00,13,R,ugm-3,29,R,ugm-3,48,R,ugm-3,48,R,ugm-3
07-01-2000,15:00,11,R,ugm-3,29,R,ugm-3,46,R,ugm-3,48,R,ugm-3
07-01-2000,16:00,14,R,ugm-3,34,R,ugm-3,55,R,ugm-3,42,R,ugm-3
07-01-2000,17:00,11,R,ugm-3,32,R,ugm-3,50,R,ugm-3,44,R,ugm-3
07-01-2000,18:00,11,R,ugm-3,31,R,ugm-3,48,R,ugm-3,46,R,ugm-3
07-01-2000,19:00,11,R,ugm-3,32,R,ugm-3,50,R,ugm-3,44,R,ugm-3
07-01-2000,20:00,10,R,ugm-3,27,R,ugm-3,42,R,ugm-3,44,R,ugm-3
07-01-2000,21:00,8,R,ugm-3,23,R,ugm-3,34,R,ugm-3,48,R,ugm-3
07-01-2000,22:00,4,R,ugm-3,15,R,ugm-3,21,R,ugm-3,56,R,ugm-3
07-01-2000,23:00,4,R,ugm-3,11,R,ugm-3,17,R,ugm-3,58,R,ugm-3
07-01-2000,24:00,3,R,ugm-3,11,R,ugm-3,15,R,ugm-3,60,R,ugm-3
08-01-2000,01:00,3,R,ugm-3,8,R,ugm-3,11,R,ugm-3,62,R,ugm-3
08-01-2000,02:00,1,R,ugm-3,8,R,ugm-3,10,R,ugm-3,66,R,ugm-3
08-01-2000,03:00,1,R,ugm-3,6,R,ugm-3,8,R,ugm-3,66,R,ugm-3
08-01-2000,04:00,1,R,ugm-3,6,R,ugm-3,8,R,ugm-3,66,R,ugm-3
08-01-2000,05:00,3,R,ugm-3,8,R,ugm-3,11,R,ugm-3,72,R,ugm-3
08-01-2000,06:00,5,R,ugm-3,11,R,ugm-3,19,R,ugm-3,66,R,ugm-3
08-01-2000,07:00,4,R,ugm-3,19,R,ugm-3,25,R,ugm-3,56,R,ugm-3
08-01-2000,08:00,9,R,ugm-3,31,R,ugm-3,44,R,ugm-3,42,R,ugm-3
08-01-2000,09:00,9,R,ugm-3,32,R,ugm-3,46,R,ugm-3,40,R,ugm-3
08-01-2000,10:00,11,R,ugm-3,32,R,ugm-3,50,R,ugm-3,42,R,ugm-3
08-01-2000,11:00,13,R,ugm-3,32,R,ugm-3,52,R,ugm-3,42,R,ugm-3
08-01-2000,12:00,11,R,ugm-3,31,R,ugm-3,48,R,ugm-3,44,R,ugm-3
08-01-2000,13:00,11,R,ugm-3,27,R,ugm-3,44,R,ugm-3,48,R,ugm-3
08-01-2000,14:00,13,R,ugm-3,29,R,ugm-3,48,R,ugm-3,48,R,ugm-3
08-01-2000,15:00,11,R,ugm-3,25,R,ugm-3,42,R,ugm-3,52,R,ugm-3
08-01-2000,16:00,13,R,ugm-3,34,R,ugm-3,53,R,ugm-3,40,R,ugm-3
08-01-2000,17:00,20,R,ugm-3,48,R,ugm-3,78,R,ugm-3,22,R,ugm-3
08-01-2000,18:00,30,R,ugm-3,59,R,ugm-3,105,R,ugm-3,10,R,ugm-3
08-01-2000,19:00,20,R,ugm-3,46,R,ugm-3,76,R,ugm-3,24,R,ugm-3
08-01-2000,20:00,19,R,ugm-3,44,R,ugm-3,73,R,ugm-3,24,R,ugm-3
08-01-2000,21:00,15,R,ugm-3,42,R,ugm-3,65,R,ugm-3,26,R,ugm-3
08-01-2000,22:00,9,R,ugm-3,32,R,ugm-3,46,R,ugm-3,38,R,ugm-3
08-01-2000,23:00,6,R,ugm-3,27,R,ugm-3,36,R,ugm-3,40,R,ugm-3
08-01-2000,24:00,8,R,ugm-3,27,R,ugm-3,38,R,ugm-3,42,R,ugm-3
09-01-2000,01:00,11,R,ugm-3,38,R,ugm-3,55,R,ugm-3,24,R,ugm-3
09-01-2000,02:00,11,R,ugm-3,42,R,ugm-3,59,R,ugm-3,16,R,ugm-3
09-01-2000,03:00,6,R,ugm-3,31,R,ugm-3,40,R,ugm-3,24,R,ugm-3
09-01-2000,04:00,9,R,ugm-3,36,R,ugm-3,50,R,ugm-3,20,R,ugm-3
09-01-2000,05:00,4,R,ugm-3,21,R,ugm-3,27,R,ugm-3,36,R,ugm-3
09-01-2000,06:00,6,R,ugm-3,25,R,ugm-3,34,R,ugm-3,32,R,ugm-3
09-01-2000,07:00,9,R,ugm-3,32,R,ugm-3,46,R,ugm-3,22,R,ugm-3
09-01-2000,08:00,13,R,ugm-3,44,R,ugm-3,63,R,ugm-3,8,R,ugm-3
09-01-2000,09:00,11,R,ugm-3,38,R,ugm-3,55,R,ugm-3,16,R,ugm-3
09-01-2000,10:00,19,R,ugm-3,40,R,ugm-3,69,R,ugm-3,22,R,ugm-3
09-01-2000,11:00,25,R,ugm-3,44,R,ugm-3,82,R,ugm-3,18,R,ugm-3
09-01-2000,12:00,21,R,ugm-3,40,R,ugm-3,73,R,ugm-3,26,R,ugm-3
09-01-2000,13:00,18,R,ugm-3,40,R,ugm-3,67,R,ugm-3,30,R,ugm-3
09-01-2000,14:00,16,R,ugm-3,44,R,ugm-3,69,R,ugm-3,30,R,ugm-3
09-01-2000,15:00,20,R,ugm-3,50,R,ugm-3,80,R,ugm-3,24,R,ugm-3
09-01-2000,16:00,34,R,ugm-3,65,R,ugm-3,117,R,ugm-3,6,R,ugm-3
09-01-2000,17:00,108,R,ugm-3,69,R,ugm-3,233,R,ugm-3,2,R,ugm-3
09-01-2000,18:00,211,R,ugm-3,69,R,ugm-3,392,R,ugm-3,0,R,ugm-3
09-01-2000,19:00,445,R,ugm-3,71,R,ugm-3,751,R,ugm-3,2,R,ugm-3
09-01-2000,20:00,351,R,ugm-3,65,R,ugm-3,602,R,ugm-3,2,R,ugm-3
09-01-2000,21:00,364,R,ugm-3,59,R,ugm-3,615,R,ugm-3,2,R,ugm-3
09-01-2000,22:00,306,R,ugm-3,55,R,ugm-3,523,R,ugm-3,0,R,ugm-3
09-01-2000,23:00,170,R,ugm-3,52,R,ugm-3,311,R,ugm-3,0,R,ugm-3
09-01-2000,24:00,98,R,ugm-3,48,R,ugm-3,197,R,ugm-3,0,R,ugm-3
10-01-2000,01:00,85,R,ugm-3,40,R,ugm-3,170,R,ugm-3,0,R,ugm-3
10-01-2000,02:00,51,R,ugm-3,36,R,ugm-3,115,R,ugm-3,0,R,ugm-3
10-01-2000,03:00,21,R,ugm-3,34,R,ugm-3,67,R,ugm-3,0,R,ugm-3
10-01-2000,04:00,24,R,ugm-3,32,R,ugm-3,69,R,ugm-3,0,R,ugm-3
10-01-2000,05:00,36,R,ugm-3,31,R,ugm-3,86,R,ugm-3,0,R,ugm-3
10-01-2000,06:00,86,R,ugm-3,34,R,ugm-3,166,R,ugm-3,0,R,ugm-3
10-01-2000,07:00,174,R,ugm-3,48,R,ugm-3,313,R,ugm-3,0,R,ugm-3
10-01-2000,08:00,255,R,ugm-3,57,R,ugm-3,447,R,ugm-3,0,R,ugm-3
10-01-2000,09:00,150,R,ugm-3,63,R,ugm-3,292,R,ugm-3,0,R,ugm-3
10-01-2000,10:00,63,R,ugm-3,57,R,ugm-3,153,R,ugm-3,4,R,ugm-3
10-01-2000,11:00,45,R,ugm-3,50,R,ugm-3,118,R,ugm-3,6,R,ugm-3
10-01-2000,12:00,43,R,ugm-3,52,R,ugm-3,117,R,ugm-3,10,R,ugm-3
10-01-2000,13:00,33,R,ugm-3,48,R,ugm-3,97,R,ugm-3,16,R,ugm-3
10-01-2000,14:00,30,R,ugm-3,50,R,ugm-3,96,R,ugm-3,18,R,ugm-3
10-01-2000,15:00,35,R,ugm-3,55,R,ugm-3,109,R,ugm-3,12,R,ugm-3
10-01-2000,16:00,55,R,ugm-3,63,R,ugm-3,147,R,ugm-3,4,R,ugm-3
10-01-2000,17:00,41,R,ugm-3,61,R,ugm-3,124,R,ugm-3,6,R,ugm-3
10-01-2000,18:00,35,R,ugm-3,59,R,ugm-3,113,R,ugm-3,8,R,ugm-3
10-01-2000,19:00,23,R,ugm-3,53,R,ugm-3,88,R,ugm-3,12,R,ugm-3
10-01-2000,20:00,21,R,ugm-3,52,R,ugm-3,84,R,ugm-3,12,R,ugm-3
10-01-2000,21:00,13,R,ugm-3,46,R,ugm-3,65,R,ugm-3,20,R,ugm-3
10-01-2000,22:00,9,R,ugm-3,36,R,ugm-3,50,R,ugm-3,28,R,ugm-3
10-01-2000,23:00,4,R,ugm-3,25,R,ugm-3,31,R,ugm-3,40,R,ugm-3
10-01-2000,24:00,4,R,ugm-3,19,R,ugm-3,25,R,ugm-3,44,R,ugm-3
11-01-2000,01:00,3,R,ugm-3,10,R,ugm-3,13,R,ugm-3,52,R,ugm-3
11-01-2000,02:00,1,R,ugm-3,8,R,ugm-3,10,R,ugm-3,58,R,ugm-3
11-01-2000,03:00,8,R,ugm-3,15,R,ugm-3,27,R,ugm-3,50,R,ugm-3
11-01-2000,04:00,8,R,ugm-3,13,R,ugm-3,25,R,ugm-3,50,R,ugm-3
11-01-2000,05:00,9,R,ugm-3,13,R,ugm-3,27,R,ugm-3,50,R,ugm-3
11-01-2000,06:00,8,R,ugm-3,19,R,ugm-3,31,R,ugm-3,44,R,ugm-3
11-01-2000,07:00,14,R,ugm-3,31,R,ugm-3,52,R,ugm-3,30,R,ugm-3
11-01-2000,08:00,28,R,ugm-3,48,R,ugm-3,90,R,ugm-3,14,R,ugm-3
11-01-2000,09:00,21,R,ugm-3,46,R,ugm-3,78,R,ugm-3,16,R,ugm-3
11-01-2000,10:00,24,R,ugm-3,44,R,ugm-3,80,R,ugm-3,20,R,ugm-3
11-01-2000,11:00,16,R,ugm-3,38,R,ugm-3,63,R,ugm-3,32,R,ugm-3
11-01-2000,12:00,14,R,ugm-3,36,R,ugm-3,57,R,ugm-3,34,R,ugm-3
11-01-2000,13:00,13,R,ugm-3,34,R,ugm-3,53,R,ugm-3,34,R,ugm-3
11-01-2000,14:00,14,R,ugm-3,34,R,ugm-3,55,R,ugm-3,36,R,ugm-3
11-01-2000,15:00,11,R,ugm-3,32,R,ugm-3,50,R,ugm-3,40,R,ugm-3
11-01-2000,16:00,,,,,,,,,,,,
11-01-2000,17:00,26,R,ugm-3,53,R,ugm-3,94,R,ugm-3,10,R,ugm-3
11-01-2000,18:00,34,R,ugm-3,57,R,ugm-3,109,R,ugm-3,10,R,ugm-3
11-01-2000,19:00,19,R,ugm-3,44,R,ugm-3,73,R,ugm-3,20,R,ugm-3
11-01-2000,20:00,11,R,ugm-3,34,R,ugm-3,52,R,ugm-3,28,R,ugm-3
11-01-2000,21:00,8,R,ugm-3,29,R,ugm-3,40,R,ugm-3,38,R,ugm-3
11-01-2000,22:00,4,R,ugm-3,23,R,ugm-3,29,R,ugm-3,42,R,ugm-3
11-01-2000,23:00,4,R,ugm-3,23,R,ugm-3,29,R,ugm-3,36,R,ugm-3
11-01-2000,24:00,3,R,ugm-3,17,R,ugm-3,21,R,ugm-3,42,R,ugm-3
12-01-2000,01:00,1,R,ugm-3,11,R,ugm-3,13,R,ugm-3,48,R,ugm-3
12-01-2000,02:00,0,R,ugm-3,10,R,ugm-3,10,R,ugm-3,54,R,ugm-3
12-01-2000,03:00,5,R,ugm-3,11,R,ugm-3,19,R,ugm-3,60,R,ugm-3
12-01-2000,04:00,4,R,ugm-3,10,R,ugm-3,15,R,ugm-3,60,R,ugm-3
12-01-2000,05:00,4,R,ugm-3,11,R,ugm-3,17,R,ugm-3,56,R,ugm-3
12-01-2000,06:00,5,R,ugm-3,15,R,ugm-3,23,R,ugm-3,50,R,ugm-3
12-01-2000,07:00,10,R,ugm-3,23,R,ugm-3,38,R,ugm-3,40,R,ugm-3
12-01-2000,08:00,14,R,ugm-3,31,R,ugm-3,52,R,ugm-3,32,R,ugm-3
12-01-2000,09:00,18,R,ugm-3,34,R,ugm-3,61,R,ugm-3,28,R,ugm-3
12-01-2000,10:00,18,R,ugm-3,34,R,ugm-3,61,R,ugm-3,30,R,ugm-3
12-01-2000,11:00,11,R,ugm-3,27,R,ugm-3,44,R,ugm-3,36,R,ugm-3
12-01-2000,12:00,15,R,ugm-3,31,R,ugm-3,53,R,ugm-3,34,R,ugm-3
12-01-2000,13:00,14,R,ugm-3,32,R,ugm-3,53,R,ugm-3,30,R,ugm-3
12-01-2000,14:00,15,R,ugm-3,32,R,ugm-3,55,R,ugm-3,32,R,ugm-3
12-01-2000,15:00,13,R,ugm-3,31,R,ugm-3,50,R,ugm-3,34,R,ugm-3
12-01-2000,16:00,14,R,ugm-3,34,R,ugm-3,55,R,ugm-3,28,R,ugm-3
12-01-2000,17:00,15,R,ugm-3,38,R,ugm-3,61,R,ugm-3,24,R,ugm-3
12-01-2000,18:00,14,R,ugm-3,34,R,ugm-3,55,R,ugm-3,30,R,ugm-3
12-01-2000,19:00,13,R,ugm-3,32,R,ugm-3,52,R,ugm-3,30,R,ugm-3
12-01-2000,20:00,10,R,ugm-3,29,R,ugm-3,44,R,ugm-3,36,R,ugm-3
12-01-2000,21:00,8,R,ugm-3,25,R,ugm-3,36,R,ugm-3,38,R,ugm-3
12-01-2000,22:00,8,R,ugm-3,21,R,ugm-3,32,R,ugm-3,40,R,ugm-3
12-01-2000,23:00,5,R,ugm-3,19,R,ugm-3,27,R,ugm-3,44,R,ugm-3
12-01-2000,24:00,5,R,ugm-3,11,R,ugm-3,19,R,ugm-3,48,R,ugm-3
13-01-2000,01:00,4,R,ugm-3,10,R,ugm-3,15,R,ugm-3,50,R,ugm-3
13-01-2000,02:00,4,R,ugm-3,10,R,ugm-3,15,R,ugm-3,50,R,ugm-3
13-01-2000,03:00,5,R,ugm-3,10,R,ugm-3,17,R,ugm-3,50,R,ugm-3
13-01-2000,04:00,5,R,ugm-3,10,R,ugm-3,17,R,ugm-3,50,R,ugm-3
13-01-2000,05:00,4,R,ugm-3,11,R,ugm-3,17,R,ugm-3,48,R,ugm-3
13-01-2000,06:00,3,R,ugm-3,13,R,ugm-3,17,R,ugm-3,44,R,ugm-3
13-01-2000,07:00,5,R,ugm-3,25,R,ugm-3,32,R,ugm-3,30,R,ugm-3
13-01-2000,08:00,18,R,ugm-3,40,R,ugm-3,67,R,ugm-3,10,R,ugm-3
13-01-2000,09:00,23,R,ugm-3,48,R,ugm-3,82,R,ugm-3,2,R,ugm-3
13-01-2000,10:00,25,R,ugm-3,48,R,ugm-3,86,R,ugm-3,2,R,ugm-3
13-01-2000,11:00,31,R,ugm-3,52,R,ugm-3,99,R,ugm-3,2,R,ugm-3
13-01-2000,12:00,24,R,ugm-3,53,R,ugm-3,90,R,ugm-3,8,R,ugm-3
13-01-2000,13:00,24,R,ugm-3,57,R,ugm-3,94,R,ugm-3,10,R,ugm-3
13-01-2000,14:00,15,R,ugm-3,53,R,ugm-3,76,R,ugm-3,14,R,ugm-3
13-01-2000,15:00,23,R,ugm-3,61,R,ugm-3,96,R,ugm-3,10,R,ugm-3
13-01-2000,16:00,28,R,ugm-3,67,R,ugm-3,109,R,ugm-3,4,R,ugm-3
13-01-2000,17:00,30,R,ugm-3,69,R,ugm-3,115,R,ugm-3,0,R,ugm-3
13-01-2000,18:00,60,R,ugm-3,69,R,ugm-3,160,R,ugm-3,0,R,ugm-3
13-01-2000,19:00,56,R,ugm-3,67,R,ugm-3,153,R,ugm-3,0,R,ugm-3
13-01-2000,20:00,81,R,ugm-3,71,R,ugm-3,195,R,ugm-3,0,R,ugm-3
13-01-2000,21:00,108,R,ugm-3,73,R,ugm-3,237,R,ugm-3,0,R,ugm-3
13-01-2000,22:00,150,R,ugm-3,73,R,ugm-3,302,R,ugm-3,0,R,ugm-3
13-01-2000,23:00,138,R,ugm-3,73,R,ugm-3,283,R,ugm-3,0,R,ugm-3
13-01-2000,24:00,146,R,ugm-3,69,R,ugm-3,292,R,ugm-3,0,R,ugm-3
14-01-2000,01:00,148,R,ugm-3,65,R,ugm-3,290,R,ugm-3,0,R,ugm-3
14-01-2000,02:00,128,R,ugm-3,65,R,ugm-3,260,R,ugm-3,0,R,ugm-3
14-01-2000,03:00,94,R,ugm-3,63,R,ugm-3,206,R,ugm-3,0,R,ugm-3
14-01-2000,04:00,81,R,ugm-3,61,R,ugm-3,185,R,ugm-3,0,R,ugm-3
14-01-2000,05:00,69,R,ugm-3,61,R,ugm-3,166,R,ugm-3,0,R,ugm-3
14-01-2000,06:00,56,R,ugm-3,59,R,ugm-3,145,R,ugm-3,0,R,ugm-3
14-01-2000,07:00,64,R,ugm-3,61,R,ugm-3,159,R,ugm-3,0,R,ugm-3
14-01-2000,08:00,31,R,ugm-3,65,R,ugm-3,113,R,ugm-3,0,R,ugm-3
14-01-2000,09:00,30,R,ugm-3,67,R,ugm-3,113,R,ugm-3,0,R,ugm-3
14-01-2000,10:00,55,R,ugm-3,67,R,ugm-3,151,R,ugm-3,2,R,ugm-3
14-01-2000,11:00,55,R,ugm-3,65,R,ugm-3,149,R,ugm-3,4,R,ugm-3
14-01-2000,12:00,41,R,ugm-3,61,R,ugm-3,124,R,ugm-3,10,R,ugm-3
14-01-2000,13:00,18,R,ugm-3,57,R,ugm-3,84,R,ugm-3,16,R,ugm-3
14-01-2000,14:00,14,R,ugm-3,52,R,ugm-3,73,R,ugm-3,22,R,ugm-3
14-01-2000,15:00,20,R,ugm-3,59,R,ugm-3,90,R,ugm-3,12,R,ugm-3
14-01-2000,16:00,16,R,ugm-3,61,R,ugm-3,86,R,ugm-3,10,R,ugm-3
14-01-2000,17:00,21,R,ugm-3,63,R,ugm-3,96,R,ugm-3,4,R,ugm-3
14-01-2000,18:00,29,R,ugm-3,65,R,ugm-3,109,R,ugm-3,2,R,ugm-3
14-01-2000,19:00,33,R,ugm-3,61,R,ugm-3,111,R,ugm-3,0,R,ugm-3
14-01-2000,20:00,28,R,ugm-3,55,R,ugm-3,97,R,ugm-3,0,R,ugm-3
14-01-2000,21:00,26,R,ugm-3,50,R,ugm-3,90,R,ugm-3,0,R,ugm-3
14-01-2000,22:00,15,R,ugm-3,46,R,ugm-3,69,R,ugm-3,0,R,ugm-3
14-01-2000,23:00,10,R,ugm-3,44,R,ugm-3,59,R,ugm-3,2,R,ugm-3
14-01-2000,24:00,4,R,ugm-3,44,R,ugm-3,50,R,ugm-3,4,R,ugm-3
15-01-2000,01:00,1,R,ugm-3,36,R,ugm-3,38,R,ugm-3,12,R,ugm-3
15-01-2000,02:00,1,R,ugm-3,29,R,ugm-3,31,R,ugm-3,16,R,ugm-3
15-01-2000,03:00,0,R,ugm-3,25,R,ugm-3,25,R,ugm-3,20,R,ugm-3
15-01-2000,04:00,0,R,ugm-3,25,R,ugm-3,25,R,ugm-3,18,R,ugm-3
15-01-2000,05:00,1,R,ugm-3,27,R,ugm-3,29,R,ugm-3,10,R,ugm-3
15-01-2000,06:00,4,R,ugm-3,31,R,ugm-3,36,R,ugm-3,4,R,ugm-3
15-01-2000,07:00,13,R,ugm-3,36,R,ugm-3,55,R,ugm-3,0,R,ugm-3
15-01-2000,08:00,38,R,ugm-3,40,R,ugm-3,97,R,ugm-3,0,R,ugm-3
15-01-2000,09:00,45,R,ugm-3,42,R,ugm-3,111,R,ugm-3,2,R,ugm-3
15-01-2000,10:00,25,R,ugm-3,46,R,ugm-3,84,R,ugm-3,4,R,ugm-3
15-01-2000,11:00,28,R,ugm-3,50,R,ugm-3,92,R,ugm-3,6,R,ugm-3
15-01-2000,12:00,19,R,ugm-3,38,R,ugm-3,67,R,ugm-3,8,R,ugm-3
15-01-2000,13:00,16,R,ugm-3,34,R,ugm-3,59,R,ugm-3,4,R,ugm-3
15-01-2000,14:00,10,R,ugm-3,34,R,ugm-3,50,R,ugm-3,10,R,ugm-3
15-01-2000,15:00,9,R,ugm-3,32,R,ugm-3,46,R,ugm-3,12,R,ugm-3
15-01-2000,16:00,5,R,ugm-3,32,R,ugm-3,40,R,ugm-3,14,R,ugm-3
15-01-2000,17:00,8,R,ugm-3,42,R,ugm-3,53,R,ugm-3,8,R,ugm-3
15-01-2000,18:00,4,R,ugm-3,42,R,ugm-3,48,R,ugm-3,16,R,ugm-3
15-01-2000,19:00,9,R,ugm-3,53,R,ugm-3,67,R,ugm-3,6,R,ugm-3
15-01-2000,20:00,15,R,ugm-3,61,R,ugm-3,84,R,ugm-3,2,R,ugm-3
15-01-2000,21:00,39,R,ugm-3,71,R,ugm-3,130,R,ugm-3,0,R,ugm-3
15-01-2000,22:00,34,R,ugm-3,69,R,ugm-3,120,R,ugm-3,0,R,ugm-3
15-01-2000,23:00,36,R,ugm-3,67,R,ugm-3,122,R,ugm-3,0,R,ugm-3
15-01-2000,24:00,26,R,ugm-3,65,R,ugm-3,105,R,ugm-3,0,R,ugm-3
16-01-2000,01:00,28,R,ugm-3,63,R,ugm-3,105,R,ugm-3,0,R,ugm-3
16-01-2000,02:00,21,R,ugm-3,61,R,ugm-3,94,R,ugm-3,0,R,ugm-3
16-01-2000,03:00,4,R,ugm-3,52,R,ugm-3,57,R,ugm-3,2,R,ugm-3
16-01-2000,04:00,3,R,ugm-3,48,R,ugm-3,52,R,ugm-3,4,R,ugm-3
16-01-2000,05:00,1,R,ugm-3,36,R,ugm-3,38,R,ugm-3,14,R,ugm-3
16-01-2000,06:00,0,R,ugm-3,29,R,ugm-3,29,R,ugm-3,24,R,ugm-3
16-01-2000,07:00,1,R,ugm-3,34,R,ugm-3,36,R,ugm-3,24,R,ugm-3
16-01-2000,08:00,5,R,ugm-3,44,R,ugm-3,52,R,ugm-3,18,R,ugm-3
16-01-2000,09:00,11,R,ugm-3,59,R,ugm-3,76,R,ugm-3,4,R,ugm-3
16-01-2000,10:00,13,R,ugm-3,55,R,ugm-3,74,R,ugm-3,10,R,ugm-3
16-01-2000,11:00,25,R,ugm-3,59,R,ugm-3,97,R,ugm-3,8,R,ugm-3
16-01-2000,12:00,26,R,ugm-3,52,R,ugm-3,92,R,ugm-3,16,R,ugm-3
16-01-2000,13:00,29,R,ugm-3,55,R,ugm-3,99,R,ugm-3,16,R,ugm-3
16-01-2000,14:00,24,R,ugm-3,57,R,ugm-3,94,R,ugm-3,20,R,ugm-3
16-01-2000,15:00,15,R,ugm-3,55,R,ugm-3,78,R,ugm-3,22,R,ugm-3
16-01-2000,16:00,10,R,ugm-3,57,R,ugm-3,73,R,ugm-3,14,R,ugm-3
16-01-2000,17:00,54,R,ugm-3,73,R,ugm-3,155,R,ugm-3,0,R,ugm-3
16-01-2000,18:00,181,R,ugm-3,67,R,ugm-3,344,R,ugm-3,0,R,ugm-3
16-01-2000,19:00,315,R,ugm-3,69,R,ugm-3,550,R,ugm-3,0,R,ugm-3
16-01-2000,20:00,218,R,ugm-3,71,R,ugm-3,403,R,ugm-3,0,R,ugm-3
16-01-2000,21:00,231,R,ugm-3,74,R,ugm-3,428,R,ugm-3,0,R,ugm-3
16-01-2000,22:00,253,R,ugm-3,67,R,ugm-3,453,R,ugm-3,0,R,ugm-3
16-01-2000,23:00,198,R,ugm-3,61,R,ugm-3,363,R,ugm-3,0,R,ugm-3
16-01-2000,24:00,114,R,ugm-3,59,R,ugm-3,233,R,ugm-3,0,R,ugm-3
17-01-2000,01:00,69,R,ugm-3,57,R,ugm-3,162,R,ugm-3,0,R,ugm-3
17-01-2000,02:00,53,R,ugm-3,53,R,ugm-3,134,R,ugm-3,0,R,ugm-3
17-01-2000,03:00,34,R,ugm-3,52,R,ugm-3,103,R,ugm-3,0,R,ugm-3
17-01-2000,04:00,10,R,ugm-3,44,R,ugm-3,59,R,ugm-3,4,R,ugm-3
17-01-2000,05:00,3,R,ugm-3,27,R,ugm-3,31,R,ugm-3,18,R,ugm-3
17-01-2000,06:00,4,R,ugm-3,32,R,ugm-3,38,R,ugm-3,16,R,ugm-3
17-01-2000,07:00,9,R,ugm-3,40,R,ugm-3,53,R,ugm-3,12,R,ugm-3
17-01-2000,08:00,24,R,ugm-3,46,R,ugm-3,82,R,ugm-3,4,R,ugm-3